, FL

(GMT )
Crestview

Weather History for KEGI - February, 2013

Change the Weather History Date:

Monday, February 4, 2013

  Actual Average Record
Temperature  
Mean Temperature 50 °F -  
Max Temperature 62 °F - - ()
Min Temperature 37 °F - - ()
Degree Days  
Heating Degree Days 16    
Moisture  
Dew Point 43 °F    
Average Humidity 71    
Maximum Humidity 93    
Minimum Humidity 34    
Precipitation  
Precipitation 0.00 in - - ()
Sea Level Pressure  
Sea Level Pressure 30.07 in    
Wind  
Wind Speed 3 mph (SSE)    
Max Wind Speed 8 mph    
Max Gust Speed -    
Visibility 10 miles    
Events Rain    
T = Trace of Precipitation, MM = Missing Value Source: NWS Daily Summary

Daily Weather History Graph

Daily Weather History Graph

Search for Another Location

Airport or City:

Astronomy

Feb. 04, 2013 Rise Set
Actual Time 6:35 AM CST 5:25 PM CST
Civil Twilight 6:10 AM CST 5:50 PM CST
Nautical Twilight 5:41 AM CST 6:18 PM CST
Astronomical Twilight 5:13 AM CST 6:47 PM CST
Moon 1:05 AM CST (2/4) 11:54 AM CST (2/4)
Length of Visible Light 11h 40m
Length of Day
10h 49m
Last Quarter, 37% of the Moon is Illuminated
Feb 4
Last Quarter
Feb 10
New
Feb 17
First Quarter
Feb 25
Full
Mar 4
Last Quarter

Hourly Weather History & Observations

Time (CST) Temp. Dew Point Humidity Pressure Visibility Wind Dir Wind Speed Gust Speed Precip Events Conditions
12:58 AM 42.8 °F 38.8 °F 86% 30.11 in 10.0 mi NW 2.3 mph - N/A   Clear
1:58 AM 39.2 °F 36.5 °F 90% 30.10 in 10.0 mi Calm Calm - N/A   Clear
2:58 AM 38.5 °F 36.3 °F 92% 30.10 in 10.0 mi North 1.2 mph - N/A   Clear
4:58 AM 38.3 °F 36.3 °F 93% 30.09 in 10.0 mi NE 2.3 mph - N/A   Mostly Cloudy
5:58 AM 37.8 °F 35.8 °F 93% 30.10 in 10.0 mi Calm Calm - N/A   Overcast
6:58 AM 38.3 °F 36.0 °F 91% 30.10 in 10.0 mi NE 2.3 mph - N/A   Scattered Clouds
7:58 AM 41.5 °F 35.4 °F 79% 30.11 in 10.0 mi Variable 1.2 mph - N/A   Scattered Clouds
8:58 AM 49.3 °F 34.5 °F 57% 30.13 in 10.0 mi ENE 4.6 mph - N/A   Mostly Cloudy
9:58 AM 58.1 °F 32.0 °F 37% 30.13 in 10.0 mi Variable 5.8 mph - N/A   Mostly Cloudy
10:58 AM 60.6 °F 31.6 °F 34% 30.12 in 10.0 mi SE 5.8 mph - N/A   Mostly Cloudy
11:58 AM 60.6 °F 35.8 °F 40% 30.11 in 10.0 mi South 5.8 mph - N/A   Overcast
12:58 PM 61.9 °F 40.5 °F 45% 30.08 in 10.0 mi South 4.6 mph - N/A   Overcast
1:55 PM 62.8 °F 42.6 °F 48% 30.05 in 10.0 mi SSE 6.9 mph - N/A   Mostly Cloudy
2:58 PM 62.6 °F 44.2 °F 51% 30.05 in 10.0 mi South 8.1 mph - N/A   Mostly Cloudy
3:58 PM 62.6 °F 46.8 °F 56% 30.05 in 10.0 mi South 6.9 mph - N/A   Mostly Cloudy
4:55 PM 61.0 °F 48.6 °F 64% 30.04 in 10.0 mi South 8.1 mph - N/A   Mostly Cloudy
5:55 PM 58.6 °F 49.1 °F 71% 30.04 in 10.0 mi SSE 4.6 mph - N/A   Mostly Cloudy
6:55 PM 57.6 °F 49.1 °F 73% 30.05 in 10.0 mi SSE 5.8 mph - N/A   Overcast
7:45 PM 57.2 °F 50.0 °F 77% 30.03 in 10.0 mi SSE 8.1 mph - N/A Rain Light Rain
7:55 PM 57.7 °F 49.6 °F 74% 30.04 in 10.0 mi SSE 8.1 mph - 0.00 in Rain Light Rain
8:55 PM 57.0 °F 49.6 °F 76% 30.03 in 10.0 mi SSE 5.8 mph - 0.00 in Rain Light Rain
9:13 PM 57.2 °F 50.0 °F 77% 30.02 in 10.0 mi SSE 3.5 mph - N/A   Overcast
9:31 PM 55.4 °F 50.0 °F 82% 30.02 in 10.0 mi Calm Calm - N/A Rain Light Rain
9:55 PM 55.4 °F 50.2 °F 83% 30.02 in 10.0 mi Calm Calm - N/A   Overcast
10:55 PM 54.9 °F 50.9 °F 86% 30.01 in 10.0 mi South 3.5 mph - N/A Rain Light Rain
11:55 PM 55.8 °F 52.5 °F 89% 30.00 in 10.0 mi South 3.5 mph - 0.00 in   Overcast